Theta_e
297 299 298 298 297 297 296 296 296 297 296 297 297 298 297 296 296 296 293 295 294 294 295 295 295 295 295 294 294 294 294 294 293 294 294 294 294 295 294 294 295 295 294 292 292 292 293 293 291 290 288 288 287 287 287 286 286 285 285 284 283 282 282 281 280 278 279 279 280 281 280 281 280 281 281 281 280 281 283 282 282 281 281 281 280
298 298 296 297 296 296 295 293 296 295 296 295 294 295 294 293 293 291 293 293 293 294 294 294 294 294 294 294 293 293 293 294 293 293 293 294 294 294 294 293 294 294 292 292 290 291 292 291 290 288 286 287 286 285 286 285 284 284 283 282 282 281 282 280 279 280 278 277 279 280 280 281 280 281 281 281 281 281 281 281 282 281 281 280 280
298 297 296 296 295 294 293 293 293 293 293 294 293 293 292 291 290 292 292 291 291 293 294 294 294 293 293 293 293 293 293 293 292 292 293 294 294 293 293 293 293 293 291 292 291 290 289 289 288 286 284 284 284 284 283 283 283 283 282 281 281 281 279 280 280 279 279 278 278 279 279 280 279 280 281 281 281 281 280 280 280 281 281 280 280
295 295 296 295 294 292 293 292 291 292 292 293 293 292 291 291 290 291 291 291 291 291 292 293 293 293 293 292 292 292 292 292 292 292 293 293 294 293 292 292 293 293 292 292 290 289 289 288 287 285 284 284 283 282 281 281 281 281 280 279 280 279 279 279 281 279 278 278 277 279 279 279 279 279 280 280 280 279 280 280 280 279 279 280 279
295 295 295 294 292 292 292 291 291 291 292 292 292 291 290 290 290 291 290 291 291 292 292 292 292 292 292 292 291 291 291 292 292 292 292 293 293 293 292 292 292 292 292 291 288 288 288 288 286 284 283 283 282 281 281 280 280 280 280 279 279 279 279 279 279 280 279 279 277 277 277 278 278 278 279 278 278 278 278 278 278 278 278 279 279
294 295 294 293 293 292 292 291 292 292 292 291 291 291 290 290 290 289 290 292 291 291 292 292 292 291 291 292 291 291 291 291 291 292 292 292 292 291 291 291 291 291 290 289 288 288 288 287 285 284 283 283 282 282 281 281 281 281 280 279 279 279 279 279 280 280 280 279 278 276 277 277 277 276 277 277 277 277 277 276 276 276 276 276 277
294 294 294 293 293 293 293 293 293 292 291 291 290 290 290 290 290 290 289 291 291 291 291 291 290 291 291 291 291 291 291 290 291 291 291 291 291 290 290 289 289 289 288 288 287 287 287 286 284 284 284 284 283 282 281 281 281 280 280 279 279 280 279 279 280 280 279 278 277 277 277 277 277 277 277 276 276 276 276 276 276 277 276 276 275
292 293 293 293 293 294 294 293 292 292 292 290 290 290 290 290 290 290 289 289 290 290 290 291 290 290 290 290 290 290 290 290 290 290 290 290 290 289 289 288 288 288 287 287 286 286 286 286 284 284 284 284 284 283 282 281 281 280 280 280 280 280 279 279 279 279 278 278 277 276 276 276 277 276 276 276 277 277 277 276 275 276 277 276 276
292 293 293 293 294 295 295 292 291 291 290 290 290 290 290 290 289 289 289 289 289 289 289 290 290 289 289 289 289 289 289 289 289 289 289 289 289 289 288 288 288 287 286 285 285 285 285 285 284 283 284 284 284 284 283 283 281 280 280 280 280 280 279 279 279 278 277 277 276 277 276 276 276 276 276 277 277 277 278 275 275 275 275 275 276
291 292 292 293 294 295 293 291 290 289 289 290 290 290 289 289 288 288 288 288 288 288 287 287 288 289 289 288 288 288 288 289 288 289 290 289 289 289 288 287 287 287 285 284 284 284 284 284 283 283 283 283 283 284 285 284 284 282 281 281 281 280 279 278 278 277 277 276 277 277 276 276 277 277 277 279 279 279 277 276 275 275 274 274 276
290 291 293 294 294 293 292 291 290 289 290 289 289 289 288 288 287 287 287 287 287 287 287 287 287 288 288 288 287 287 287 288 288 290 291 291 289 288 287 287 286 286 285 284 283 282 282 282 281 282 283 283 282 284 287 286 286 285 285 284 284 282 280 279 278 278 278 278 278 278 278 277 278 279 279 279 279 278 278 277 276 274 273 271 271
290 291 292 293 293 293 292 291 289 290 289 289 289 288 287 287 287 287 286 286 286 285 286 286 286 286 287 287 287 286 286 287 289 290 291 291 289 287 287 286 286 285 285 284 283 281 281 280 280 281 281 281 281 283 284 286 286 286 285 285 285 285 285 282 279 278 278 278 277 278 278 279 279 280 279 279 279 278 278 276 274 274 273 273 276
290 290 291 291 292 291 290 290 290 289 289 288 288 287 287 287 287 286 286 286 284 285 286 285 285 285 286 286 286 286 286 287 289 290 291 291 290 288 286 286 285 285 284 283 282 280 280 279 279 280 281 282 282 283 283 284 285 286 285 285 285 285 285 285 284 281 280 280 279 278 279 279 279 279 280 280 281 278 277 275 275 275 276 277 278
288 290 290 290 291 290 289 289 289 289 288 287 287 287 286 287 287 286 285 284 284 285 284 284 285 284 285 286 286 286 286 287 289 289 290 290 290 289 286 285 285 284 283 282 281 280 280 279 279 279 280 282 283 283 283 284 283 283 283 283 283 284 286 286 284 284 283 281 280 279 281 281 280 281 281 282 279 276 275 276 278 278 278 278 279
289 289 289 290 289 289 289 289 289 288 287 287 286 287 287 287 286 285 285 284 284 284 284 283 284 284 284 285 286 286 285 287 289 289 289 290 290 289 285 284 283 283 283 282 281 280 280 280 280 280 281 282 283 284 283 283 283 282 282 281 282 282 283 283 283 283 282 281 281 281 281 282 281 281 280 279 280 280 280 280 280 280 279 277 274
289 289 289 289 289 289 288 288 288 288 287 286 286 286 286 286 285 283 283 282 283 282 282 283 283 283 284 285 285 285 285 287 288 289 290 290 291 286 284 283 283 283 282 281 280 280 280 280 280 280 281 282 284 285 285 283 283 282 281 281 280 281 281 283 285 285 284 283 283 282 282 282 284 281 281 280 280 281 281 281 278 274 272 272 272
288 289 288 289 288 288 287 288 288 287 286 286 286 286 285 284 283 282 282 282 282 282 282 282 283 283 283 284 284 284 284 285 287 288 289 290 290 285 283 283 282 281 281 280 279 279 280 280 280 281 281 282 285 287 286 285 282 281 281 280 280 279 279 281 284 285 286 286 285 285 285 285 286 286 286 286 284 282 280 277 276 273 273 274 275
288 288 288 288 288 287 287 287 287 287 286 286 286 285 284 283 283 282 283 281 281 281 281 281 282 282 283 284 284 284 283 284 287 288 289 290 288 284 283 282 281 280 280 280 279 279 280 281 282 281 281 282 286 287 287 284 282 281 280 279 277 278 278 279 280 282 285 285 285 285 285 285 286 286 285 285 285 284 279 275 274 274 274 275 274
288 288 288 288 287 286 286 286 287 287 286 286 285 285 283 283 282 281 282 281 282 281 281 281 281 283 284 284 284 283 283 283 287 288 289 289 287 283 282 281 280 279 279 278 279 279 279 281 282 282 282 284 287 288 287 284 282 281 280 279 277 278 279 279 278 278 278 279 280 281 281 283 282 281 281 284 284 283 281 278 277 276 276 276 276
288 287 286 286 286 286 286 286 286 286 286 285 284 284 282 280 280 280 280 281 280 280 281 281 281 282 283 283 283 283 282 283 285 288 288 289 286 283 282 281 279 279 279 278 278 278 279 280 282 284 285 287 288 288 287 286 283 282 281 280 279 278 280 279 279 279 278 279 278 278 279 279 279 280 279 279 279 279 279 278 278 278 277 276 275
286 286 286 285 285 285 285 285 285 285 285 285 283 281 280 281 279 279 279 279 279 279 280 280 281 282 282 282 282 282 282 283 285 287 288 289 287 284 282 281 280 279 278 278 278 278 278 279 281 284 286 288 288 288 287 286 284 282 282 281 281 281 281 279 280 281 278 278 278 278 279 279 278 278 278 277 276 276 278 279 279 278 276 274 273
285 284 284 284 284 283 283 283 283 284 282 281 280 279 277 279 280 280 279 279 279 279 279 280 281 281 281 281 281 281 282 284 284 286 288 288 287 285 282 281 281 279 278 278 278 278 279 279 280 284 286 288 288 288 288 287 286 282 282 284 285 285 281 280 280 280 279 279 279 279 278 277 276 275 274 275 276 277 276 274 275 274 273 272 272
283 283 283 282 282 281 280 280 281 279 279 280 280 278 277 278 278 279 279 279 279 278 279 280 280 279 279 279 280 280 281 283 284 285 287 287 286 285 284 282 283 280 279 278 278 279 280 280 281 284 286 287 288 288 288 288 285 283 285 286 286 285 282 280 279 279 279 278 277 276 275 273 273 272 274 275 275 274 272 270 269 270 272 273 275
281 281 280 280 279 278 276 277 277 276 278 278 278 277 276 277 277 278 279 279 278 278 279 279 279 278 278 278 278 279 280 282 284 284 286 287 286 285 285 284 284 280 280 279 280 280 280 280 282 285 287 287 288 289 288 287 285 285 286 286 286 284 279 279 277 277 276 274 273 270 268 267 269 269 270 271 270 269 270 269 268 268 269 270 271
279 279 279 277 276 274 274 274 275 274 275 277 277 277 275 276 277 276 278 278 279 279 279 279 278 278 278 277 278 278 279 281 282 284 285 285 286 285 285 285 284 283 281 280 280 280 282 283 285 286 287 288 288 288 287 287 287 286 286 286 281 277 276 274 274 273 272 271 269 267 267 269 269 268 269 269 270 272 271 269 266 264 265 267 268
279 279 277 275 274 273 274 273 274 274 274 276 277 277 277 277 277 276 277 278 279 279 278 278 278 278 277 277 277 277 278 280 281 283 284 284 285 285 285 285 284 283 282 281 282 283 283 284 286 286 286 286 286 285 283 284 286 285 283 279 275 274 273 272 272 272 269 267 267 266 268 266 266 268 270 272 272 271 270 267 266 265 266 267 265
278 278 276 275 272 272 274 273 273 273 273 273 274 275 276 277 277 277 277 277 278 278 278 278 278 277 277 277 277 277 277 279 281 282 283 283 283 284 284 283 283 283 282 282 282 282 283 284 284 285 285 285 283 282 281 282 279 278 275 273 272 271 271 271 271 269 267 265 266 266 265 267 270 272 272 272 270 269 269 268 265 264 263 260 258
279 278 276 273 274 273 274 276 275 273 273 274 275 274 274 276 277 277 277 277 277 277 278 278 277 277 277 277 276 276 277 278 280 282 283 283 282 282 282 282 282 282 282 282 282 283 283 284 284 282 280 278 277 276 275 275 274 274 273 271 270 270 271 273 272 268 267 267 267 268 269 270 271 272 271 270 268 267 268 265 264 262 262 260 259
278 276 274 273 274 275 274 274 274 274 273 272 273 275 276 276 277 276 276 278 279 278 278 278 279 279 278 277 276 276 276 277 279 284 283 284 283 282 282 282 282 282 282 283 280 280 280 278 277 276 276 275 274 273 273 273 272 272 271 270 269 269 269 269 270 268 267 269 270 272 272 272 271 270 268 266 265 264 266 265 263 263 259 258 258
276 276 275 275 275 275 274 274 273 274 274 274 274 274 279 280 279 278 277 281 282 282 282 280 280 280 279 278 278 277 277 278 282 285 285 285 285 284 283 283 283 282 283 283 281 278 277 276 275 274 273 273 272 272 272 272 271 270 270 273 270 268 269 269 268 269 269 269 270 271 270 269 267 265 264 264 262 262 264 267 259 258 259 257 257
277 277 276 276 277 276 275 275 275 274 275 275 276 276 276 279 282 282 282 282 282 283 283 282 282 281 280 278 279 280 280 282 284 285 285 285 285 284 284 284 284 284 284 280 278 276 275 274 273 273 273 272 272 272 272 271 271 271 271 271 270 271 271 268 266 267 268 268 266 266 265 265 263 262 263 263 261 259 255 258 257 255 256 256 254
279 278 277 277 278 278 276 276 276 275 275 276 277 277 276 276 278 282 283 283 283 283 283 283 283 282 282 280 279 279 281 282 284 285 285 285 285 284 284 284 284 284 283 281 275 274 274 273 272 272 272 272 272 272 272 272 272 271 271 270 270 269 269 266 265 265 265 265 263 262 261 261 260 260 259 260 260 255 255 256 255 255 255 253 254
278 279 278 278 278 279 278 278 278 277 277 277 277 278 278 278 278 279 281 283 283 283 283 283 283 283 282 281 281 280 281 282 284 284 285 285 284 284 284 285 284 284 283 278 274 274 274 274 273 273 273 273 273 272 272 272 272 271 270 269 267 265 266 267 267 264 262 262 261 260 259 258 258 259 260 259 256 254 256 256 254 254 253 253 254
279 279 279 279 278 278 279 279 279 279 279 279 279 279 279 279 279 279 279 279 281 282 284 284 283 283 283 282 282 282 282 282 284 284 284 284 285 285 284 283 285 284 281 276 275 274 274 274 274 274 274 273 273 272 272 271 271 270 268 267 265 264 264 263 264 262 261 260 258 257 256 256 257 254 252 252 255 255 254 254 251 251 251 251 251
280 278 278 278 279 279 279 279 279 279 279 278 279 279 279 279 279 279 279 278 278 278 279 281 283 283 282 282 283 283 283 283 284 284 284 284 285 285 285 282 281 281 279 275 275 274 274 274 273 273 273 273 272 272 271 269 269 268 267 265 263 263 263 261 259 257 256 253 253 253 254 255 253 255 256 254 252 252 252 252 251 252 250 251 251
281 280 279 278 279 279 279 280 280 279 279 279 279 279 279 278 278 278 278 278 278 277 278 279 280 282 282 282 283 283 283 283 283 284 284 284 285 285 280 278 279 278 276 274 274 273 273 273 273 272 272 271 270 270 270 268 267 267 266 264 263 262 261 258 257 254 252 252 254 256 256 252 253 252 250 252 252 252 251 252 251 253 252 250 251
280 281 281 280 280 280 280 280 280 280 280 279 278 278 278 278 277 277 277 277 276 277 277 278 278 279 281 280 282 283 283 283 283 283 283 283 284 282 278 278 278 277 275 273 273 272 272 271 272 271 270 270 269 269 268 268 265 264 264 263 261 260 258 255 254 255 253 251 251 252 252 250 249 251 253 253 252 251 250 251 252 255 255 255 257
280 281 281 281 280 280 280 280 279 279 279 278 278 278 277 277 276 276 276 275 275 275 276 277 277 277 277 278 281 281 281 282 283 282 282 282 280 277 277 277 277 276 274 273 272 272 271 268 269 270 268 268 266 265 265 263 262 262 260 256 256 255 260 258 259 253 252 252 250 249 251 250 248 250 253 252 251 250 251 253 251 251 253 255 253
281 281 281 281 281 280 280 279 279 278 278 277 277 277 276 276 275 275 275 274 274 275 275 276 276 276 277 278 278 280 280 278 278 277 278 275 274 275 274 274 274 272 271 270 269 270 269 267 265 266 265 265 264 263 263 260 258 258 256 255 254 254 257 251 252 252 252 251 250 248 250 249 247 248 250 250 250 250 251 251 252 251 251 251 251
281 281 281 281 281 280 279 278 278 278 277 277 276 276 275 275 274 274 274 274 274 274 274 274 274 274 275 276 276 278 277 276 275 273 271 269 271 272 273 271 270 269 267 266 267 267 266 263 262 262 261 260 260 259 257 257 256 255 254 256 256 254 253 253 252 251 252 249 251 249 249 249 247 247 248 249 250 249 250 250 251 251 251 250 251
281 281 278 280 280 280 278 278 277 277 277 276 276 276 275 274 274 273 273 273 273 273 273 273 272 271 271 272 276 276 274 272 270 269 269 268 267 268 269 269 268 266 264 263 262 262 263 260 258 258 257 256 255 256 254 255 254 254 254 254 253 254 251 249 250 250 250 250 250 250 249 249 248 249 250 251 254 253 251 252 252 252 252 252 251
280 280 280 279 279 279 278 277 277 276 276 275 276 275 274 273 273 272 272 272 271 271 271 270 269 269 272 274 274 273 267 265 265 264 263 263 262 261 260 262 264 264 263 260 259 258 257 257 256 256 256 254 255 253 253 253 254 254 254 253 253 252 252 251 250 249 249 250 249 250 249 249 250 251 252 256 250 250 249 250 251 251 250 250 250
279 279 279 278 278 278 278 277 277 276 276 275 275 272 273 273 272 271 271 271 270 270 269 267 267 269 271 273 270 268 263 263 261 262 261 260 259 258 259 259 258 256 256 255 255 257 257 257 255 255 255 255 255 256 256 256 255 254 253 253 253 253 252 251 249 249 247 249 249 250 250 250 253 251 250 251 250 249 250 251 251 250 251 250 250
277 277 277 277 277 277 276 277 276 275 275 273 273 272 271 271 270 270 270 269 268 268 267 267 267 269 269 267 265 262 261 261 260 260 259 258 258 257 255 253 253 253 252 252 251 253 255 255 253 250 250 251 251 251 253 253 254 254 254 253 252 252 251 251 251 250 250 251 250 250 250 250 251 251 252 252 249 250 250 249 250 250 249 248 248
276 276 275 275 275 276 275 274 274 273 271 270 270 270 269 270 269 269 268 267 266 266 266 266 267 266 264 263 262 261 260 259 258 258 258 258 257 255 254 254 254 254 253 251 250 252 253 254 253 252 251 249 249 250 251 251 252 253 253 254 253 254 253 252 253 251 252 251 251 251 250 251 251 251 251 252 251 251 250 250 250 252 250 250 249
274 274 274 274 273 273 273 273 271 271 271 271 270 269 269 269 268 267 266 266 265 265 265 265 265 264 262 261 260 259 259 258 258 257 257 256 256 255 254 254 253 254 253 252 250 251 252 253 254 254 254 252 250 250 250 250 250 250 250 251 253 253 252 251 249 250 250 250 251 250 251 250 251 252 252 251 251 250 251 250 248 249 250 250 250
273 273 273 273 273 271 271 270 270 270 270 270 269 268 268 267 267 265 264 264 264 264 264 264 263 262 261 260 259 258 257 257 257 256 256 256 255 254 253 252 253 252 251 250 250 251 251 252 252 253 253 252 251 251 250 249 249 249 249 250 250 250 249 248 249 249 249 250 251 250 252 252 252 251 252 252 251 251 251 251 250 249 249 249 248
272 272 272 271 271 270 270 270 269 267 268 268 267 267 266 265 264 264 263 263 263 263 263 263 263 261 260 259 258 257 257 257 256 256 255 255 254 253 253 253 253 252 251 250 249 250 251 250 251 251 251 251 251 251 251 250 249 249 249 249 249 250 250 251 248 249 249 249 250 250 251 252 251 251 251 251 251 250 250 250 249 248 248 248 248
271 271 271 270 270 270 269 269 268 268 268 266 265 264 263 263 263 262 262 262 262 262 263 261 260 260 259 258 257 256 256 256 256 255 255 255 254 253 253 253 252 252 252 251 251 251 250 250 251 251 251 251 251 251 251 250 250 249 248 248 251 254 254 253 251 250 251 251 249 249 249 250 251 251 250 250 250 249 249 248 247 248 248 248 248
269 268 268 268 267 267 268 268 268 267 265 265 264 263 262 262 261 261 261 261 261 261 261 260 260 260 258 257 256 256 256 256 256 256 255 255 254 254 253 253 252 252 252 252 251 251 250 250 250 250 250 250 250 250 249 249 249 250 248 250 254 256 256 255 254 253 252 249 249 249 250 249 249 249 249 248 247 247 247 248 248 248 247 246 247
266 266 266 266 266 265 265 266 265 265 264 264 263 262 261 261 260 260 260 260 260 260 259 259 259 259 258 258 257 257 256 256 256 256 255 255 254 254 253 253 253 253 252 251 251 251 251 250 251 251 251 251 250 249 248 249 248 249 252 254 255 255 256 255 254 254 254 251 247 248 248 248 247 247 247 246 245 245 248 248 247 247 246 247 247
Wind_Speed
6 8 6 8 6 7 6 6 8 7 7 8 9 9 7 7 7 7 5 8 8 8 8 8 8 8 9 9 9 9 9 8 7 6 7 7 7 8 7 8 10 9 8 8 7 9 11 12 11 10 8 9 9 9 9 9 8 8 6 6 7 6 6 5 6 4 1 2 2 3 3 5 4 6 6 5 4 4 5 5 4 4 5 6 6
8 7 6 7 8 8 8 6 7 7 8 8 9 9 7 7 7 6 7 7 8 9 9 8 7 8 8 9 9 9 9 9 8 7 8 8 8 7 8 9 10 9 8 9 8 8 10 11 10 9 9 10 9 10 10 9 9 9 8 8 8 7 5 5 4 6 6 1 3 2 2 3 4 5 7 7 6 5 5 5 4 5 5 5 5
8 7 7 8 9 8 7 8 7 8 9 9 9 9 8 7 6 8 8 7 7 8 8 9 9 9 8 9 9 9 9 9 8 8 9 10 10 9 9 10 11 10 10 11 11 9 9 10 10 9 6 8 8 8 8 9 9 10 10 8 9 7 5 4 6 4 9 4 3 4 4 4 4 5 6 4 4 5 5 5 5 3 4 5 5
7 7 8 9 8 7 9 8 8 9 10 10 10 9 8 8 7 8 8 7 9 7 7 8 8 9 9 9 9 8 8 8 8 9 10 10 10 10 9 10 10 11 12 11 10 10 12 10 9 9 9 9 8 7 6 7 8 7 7 6 6 6 5 4 6 6 5 8 4 5 4 5 3 1 3 3 4 3 4 2 2 3 3 3 5
7 8 8 9 8 9 9 8 10 11 12 9 11 9 9 8 8 9 8 8 8 7 7 7 8 8 9 9 9 9 9 9 9 10 9 9 10 10 9 10 10 10 10 10 10 11 11 12 10 10 10 10 8 8 7 8 7 7 8 6 6 5 5 5 5 5 8 7 5 1 2 1 1 2 4 4 2 2 2 3 3 2 3 4 4
8 8 8 9 9 11 12 10 12 13 11 10 11 9 9 9 9 8 8 9 8 8 9 8 8 9 9 9 9 9 9 9 10 11 10 9 9 8 8 9 9 8 8 7 9 9 11 11 10 11 11 12 11 9 9 10 8 8 8 6 6 6 7 5 5 6 7 6 7 4 1 3 1 1 3 3 3 2 2 1 1 2 3 5 5
7 7 9 9 9 11 12 13 13 12 11 11 8 8 10 9 9 10 9 9 9 9 8 9 8 8 9 9 10 9 9 9 10 9 9 8 9 9 9 8 8 7 7 8 8 9 9 9 10 12 13 11 11 11 10 9 9 10 11 10 7 7 6 6 6 7 7 6 3 3 4 1 2 3 1 3 2 2 2 2 3 3 4 4 5
6 8 9 9 11 13 13 11 11 12 11 9 9 9 9 10 10 9 8 10 10 10 10 10 9 8 8 9 9 9 9 9 9 8 8 8 9 9 9 9 8 7 7 7 8 9 9 9 10 12 12 12 12 12 13 13 10 8 7 9 9 9 8 6 6 6 6 5 4 5 3 4 0 1 1 2 1 2 4 5 5 3 4 2 3
8 9 8 9 13 14 11 8 7 8 8 9 10 10 10 9 8 9 9 10 9 9 8 9 9 9 8 9 8 8 9 9 8 9 9 9 9 9 9 9 9 9 8 7 8 9 9 9 10 10 11 12 15 15 14 13 12 10 8 8 9 8 7 5 6 6 5 5 3 2 4 4 4 4 4 4 5 6 3 5 4 3 3 3 4
8 8 9 12 13 12 9 7 8 7 7 10 10 9 9 9 9 9 10 10 9 8 8 8 9 10 10 9 9 8 9 8 10 14 12 10 10 9 8 9 9 9 10 9 8 8 9 9 9 12 13 13 14 14 15 15 16 14 13 11 10 9 8 8 6 6 6 6 6 5 5 5 5 5 5 5 4 2 2 2 2 2 0 2 4
7 8 12 12 11 9 8 9 7 8 10 8 7 8 9 8 8 9 9 9 10 9 9 10 10 9 10 10 10 9 9 9 14 14 15 14 11 9 9 9 9 9 9 10 10 10 8 8 7 9 10 10 11 14 11 9 9 9 9 9 9 12 10 8 7 7 7 6 5 5 5 5 5 5 6 4 3 4 3 2 3 1 0 1 3
8 9 11 10 9 9 9 7 7 9 7 9 8 7 6 7 9 9 9 9 9 7 9 10 10 9 9 10 10 10 9 10 13 15 16 15 12 10 9 9 9 9 9 10 8 8 9 8 7 7 9 10 10 10 11 13 10 12 12 11 9 8 11 10 9 6 6 6 5 6 5 6 5 5 4 4 4 3 3 2 2 1 2 2 3
7 9 10 9 10 8 7 8 9 8 9 8 7 6 8 8 9 9 11 8 6 10 11 9 10 9 9 10 10 9 9 11 11 16 18 15 15 13 8 8 9 9 9 10 9 8 8 8 7 7 7 12 10 9 9 9 10 12 12 12 11 12 9 7 8 8 8 6 6 6 7 5 5 5 5 4 2 3 1 1 2 2 3 4 4
6 9 9 9 9 7 7 8 9 9 7 7 7 8 9 11 10 9 7 7 9 9 8 10 8 9 9 9 9 8 8 11 13 16 17 17 15 13 8 9 8 7 9 9 9 10 10 10 8 8 7 8 8 9 8 8 8 8 7 6 7 7 9 10 9 9 7 6 6 7 6 5 5 3 4 4 4 2 2 3 3 3 3 3 2
7 8 9 9 6 7 8 8 9 8 6 7 7 9 10 9 9 9 8 9 9 10 10 9 9 8 8 8 7 7 8 9 13 16 16 16 16 14 7 5 6 7 9 9 9 10 9 9 9 9 9 8 8 10 11 10 10 9 8 7 6 5 5 5 5 5 4 4 5 3 3 3 3 3 3 2 4 4 4 4 4 3 2 0 2
9 9 9 9 8 8 7 8 8 7 6 6 7 9 9 8 8 6 6 6 6 5 6 6 8 8 7 7 7 8 6 9 12 15 16 16 15 10 6 7 8 7 5 6 7 7 8 10 10 9 10 10 11 14 12 10 10 10 9 7 5 4 3 3 4 4 4 4 4 4 4 4 5 4 4 4 4 3 4 3 0 1 0 2 3
10 9 9 9 8 7 6 7 8 7 6 7 9 9 8 8 7 6 7 7 8 8 8 8 7 8 9 9 9 8 7 9 13 15 15 17 12 8 7 6 6 6 6 6 6 7 8 9 10 10 11 11 14 18 17 14 11 11 10 8 6 5 4 2 5 7 8 9 9 9 8 7 8 8 9 11 8 6 3 3 4 2 1 3 3
9 8 10 9 8 7 7 7 8 7 7 10 10 8 7 5 7 7 9 9 9 8 7 7 7 7 9 9 9 9 8 9 15 16 17 18 14 9 7 7 6 5 5 4 4 5 8 13 12 12 12 12 18 18 18 14 11 10 10 9 8 6 4 3 2 3 9 9 9 8 8 8 8 8 7 6 6 3 3 3 2 0 3 3 5
9 9 10 8 8 7 7 7 8 8 9 10 9 9 9 9 7 7 7 7 8 6 6 7 6 6 6 7 8 9 7 7 12 15 17 18 14 8 8 7 7 6 6 6 5 5 6 9 13 12 12 15 22 19 19 13 11 11 10 10 10 8 6 6 6 5 4 4 3 2 1 2 2 1 2 4 4 4 1 1 1 1 4 5 5
9 8 9 9 8 8 7 8 9 9 10 8 8 8 6 5 7 7 7 7 6 6 6 6 7 6 5 6 7 7 7 6 9 15 14 15 14 10 8 8 9 9 8 8 7 5 6 7 9 14 16 20 23 22 19 15 11 9 8 8 9 8 6 7 7 6 6 6 4 3 4 2 1 1 1 1 1 1 2 2 1 1 3 3 2
9 9 9 8 8 8 7 8 9 9 8 8 7 6 6 7 7 7 7 6 6 6 7 6 6 6 5 5 6 6 6 7 9 15 17 14 16 13 8 8 8 8 8 8 8 8 8 7 7 13 18 21 21 20 18 15 12 9 8 8 8 6 10 7 8 8 6 5 3 3 3 2 2 1 2 1 2 2 3 3 4 2 1 1 3
9 9 9 9 8 7 7 7 7 7 5 5 5 6 5 6 7 8 7 7 8 8 6 6 6 5 5 5 5 6 6 8 7 12 15 13 16 12 7 7 8 9 9 8 7 7 9 8 8 12 19 20 20 19 18 16 14 8 8 9 10 13 10 6 6 6 4 4 4 3 4 3 4 4 2 1 3 3 3 2 3 3 3 1 1
9 9 8 8 8 7 6 6 7 4 4 5 6 6 5 6 6 6 7 7 8 8 7 6 6 6 5 4 4 4 5 5 9 8 10 12 15 14 13 9 13 9 10 10 9 8 7 8 9 16 18 20 19 18 17 17 12 7 12 12 13 15 10 6 6 6 5 5 5 5 5 5 5 4 3 4 3 3 3 3 2 3 3 3 3
8 8 8 7 7 6 5 5 4 4 4 5 5 5 6 5 6 7 7 8 7 7 6 6 6 6 6 5 4 4 4 4 7 9 9 15 15 14 14 14 15 8 8 9 8 7 8 8 9 16 18 19 19 18 18 16 9 13 13 14 14 11 7 6 6 6 6 5 5 5 5 3 3 4 4 4 5 3 3 1 1 2 2 1 1
8 8 8 6 5 5 3 3 4 4 4 5 6 5 5 5 6 4 6 6 7 7 6 6 7 7 6 6 5 4 4 4 4 8 11 13 15 15 15 16 15 14 8 6 9 8 9 12 14 17 17 17 17 18 15 15 15 14 14 13 11 7 7 7 7 6 6 6 6 6 5 5 5 3 4 3 2 3 2 2 1 2 3 4 3
8 9 8 5 5 3 3 3 2 2 4 4 5 6 8 8 7 6 6 6 6 7 7 6 6 7 7 6 6 6 5 4 5 5 7 11 12 15 16 15 14 13 9 7 8 13 16 16 17 18 16 14 11 8 6 7 12 11 12 11 7 7 7 7 6 6 6 6 6 6 6 4 2 2 3 4 5 4 4 3 1 1 2 2 1
9 8 8 7 4 3 4 4 3 2 3 3 3 4 5 6 7 7 7 7 7 6 7 7 7 6 7 6 6 6 6 6 6 6 6 7 7 8 10 10 12 11 8 8 10 9 12 12 10 11 9 11 10 10 9 9 8 8 6 5 6 6 6 6 7 7 6 6 6 4 3 3 2 4 4 4 4 4 3 3 4 3 2 1 2
9 9 7 5 5 4 5 5 5 5 4 5 5 5 5 5 7 9 9 9 9 8 8 9 9 9 8 8 7 6 7 7 8 9 9 9 8 8 8 8 8 7 7 7 7 8 9 10 11 8 8 8 7 6 6 5 6 6 6 5 6 6 6 6 5 5 4 4 4 3 2 3 3 4 4 4 4 2 2 4 4 1 1 3 0
8 7 6 4 6 4 4 4 5 5 5 4 5 5 7 8 7 6 5 6 8 10 10 10 9 9 9 10 10 9 7 10 11 9 9 11 10 10 9 9 8 8 9 11 9 9 9 9 8 8 8 8 7 6 6 6 5 5 6 5 6 6 6 6 6 6 5 4 4 4 4 4 4 4 3 3 1 1 2 4 2 5 0 1 3
7 8 6 6 6 5 5 5 5 5 5 5 5 3 5 6 5 6 7 7 8 5 6 7 6 7 8 8 8 11 13 9 10 16 16 15 14 12 11 11 11 10 16 20 13 10 9 9 8 8 8 7 7 7 6 6 6 6 6 5 6 6 5 4 4 5 4 4 5 5 5 5 5 4 4 4 1 1 0 4 1 2 2 1 2
8 8 6 7 7 6 6 6 6 6 5 5 5 5 3 3 7 7 5 5 6 7 8 6 7 8 7 7 5 3 7 13 18 17 18 18 17 18 18 17 19 21 22 14 10 10 10 9 8 7 7 7 7 7 7 7 7 6 6 6 5 5 5 5 4 5 6 5 4 4 4 5 5 5 5 4 4 1 2 1 2 2 2 3 2
10 9 7 7 7 7 6 6 6 6 6 5 5 5 5 4 2 6 7 7 8 9 8 9 11 12 12 10 8 5 12 16 19 19 19 20 20 20 20 22 23 24 20 16 11 8 8 9 8 8 7 7 7 7 7 7 7 7 6 5 5 4 6 5 4 6 6 5 5 5 5 5 5 4 4 3 5 2 1 1 1 2 1 1 2
11 11 8 7 7 7 7 7 6 7 7 7 7 7 7 7 7 6 6 10 10 9 9 11 13 13 14 14 14 11 12 15 20 20 22 22 21 20 21 22 21 21 18 10 9 9 8 8 8 7 7 8 7 7 7 7 7 6 6 6 5 3 4 5 5 6 5 6 6 5 5 5 4 5 4 4 5 3 2 3 1 1 2 2 1
12 10 9 8 8 7 8 8 8 7 7 7 8 8 7 7 7 7 7 7 7 8 10 12 13 13 14 15 14 15 17 20 21 20 21 21 21 21 20 16 19 19 13 8 8 8 7 7 7 7 7 6 6 7 6 6 6 6 6 6 5 5 5 4 6 5 5 5 6 5 4 5 6 6 4 3 2 3 4 4 4 3 1 2 2
10 11 14 10 8 8 8 8 8 8 7 7 7 7 7 6 6 7 8 9 9 9 8 7 11 13 10 12 15 17 18 21 22 21 22 22 22 22 20 12 12 11 8 6 7 8 8 8 8 7 7 7 7 7 7 6 6 6 6 6 6 5 6 5 5 5 6 5 6 5 5 6 5 6 7 5 4 3 4 3 2 4 4 2 1
11 10 8 10 9 8 8 9 9 9 9 8 7 6 5 5 6 6 5 4 5 6 5 5 5 9 13 10 15 17 19 21 22 23 22 23 23 23 12 9 9 8 7 6 6 6 6 7 7 6 6 6 6 6 6 6 6 6 6 7 6 6 6 6 6 5 4 6 6 5 4 4 5 4 3 3 5 5 5 5 4 2 3 3 3
10 10 9 9 9 8 8 8 8 8 7 7 6 6 5 5 4 4 4 5 5 4 5 5 6 6 5 5 11 16 19 18 18 19 20 20 23 14 7 8 8 8 7 7 7 7 7 6 7 6 6 7 6 6 6 6 6 5 5 5 6 7 6 7 6 7 6 5 5 5 5 6 5 5 6 4 2 3 3 3 2 3 4 5 4
11 11 10 9 8 9 8 8 9 10 9 8 7 7 7 7 7 7 6 7 7 7 8 7 6 7 9 8 9 8 12 16 18 15 14 16 13 7 7 7 7 8 8 7 7 7 6 6 6 7 6 6 6 6 6 6 6 6 6 5 5 6 6 6 7 5 5 6 6 5 5 5 5 5 4 5 6 4 3 4 3 3 1 3 1
11 15 16 13 11 9 8 8 8 9 8 8 8 8 8 7 7 6 5 5 6 6 5 6 6 6 6 6 7 8 10 10 10 10 10 7 6 7 6 6 6 6 6 7 7 7 6 6 4 5 6 6 6 6 6 6 5 5 6 6 6 5 6 6 6 6 6 6 5 5 6 6 5 5 4 4 4 4 5 4 3 4 5 4 4
11 10 11 16 10 11 9 8 9 9 9 9 9 9 8 7 8 8 7 7 7 6 6 6 6 5 4 5 7 8 9 8 8 7 7 7 7 7 7 6 6 7 7 6 6 6 7 6 5 6 6 6 6 6 6 6 6 6 6 7 7 7 7 7 7 7 7 5 5 5 5 5 5 4 3 3 4 3 4 4 4 4 5 4 4
10 10 9 10 12 10 9 8 9 10 9 9 9 10 10 9 8 7 7 7 6 6 6 5 6 4 3 4 8 6 5 6 6 6 5 6 6 6 6 6 6 6 5 6 5 5 6 6 5 5 6 6 6 6 6 6 6 6 7 7 5 6 6 5 5 6 6 5 5 5 5 4 4 5 4 4 4 4 4 3 3 3 4 3 3
10 9 9 8 9 9 8 9 8 8 8 6 8 9 8 8 9 9 8 9 6 6 6 5 4 3 5 10 9 10 7 5 5 4 5 5 5 5 5 5 5 5 6 6 6 7 6 7 6 6 7 6 7 6 6 6 6 6 6 6 6 5 6 6 6 4 5 5 4 5 4 4 4 4 3 4 3 3 3 4 5 4 4 4 3
11 10 9 7 9 11 11 10 8 8 8 8 8 5 5 7 8 7 8 6 7 6 7 7 6 4 5 8 10 10 7 5 4 5 5 5 5 5 5 5 5 5 4 5 4 6 7 7 7 6 7 7 7 7 7 7 6 6 6 6 6 6 5 4 4 4 4 4 4 3 4 4 4 4 3 3 3 4 5 4 4 4 5 4 4
9 8 7 8 8 9 7 8 9 9 9 8 7 6 7 7 7 7 7 7 7 6 7 6 6 6 5 7 7 6 6 6 5 6 6 5 5 5 5 5 5 5 5 5 4 5 6 6 6 4 4 4 4 4 5 5 6 6 6 6 5 5 5 5 5 5 6 6 5 5 5 4 4 3 4 5 4 5 5 4 4 5 5 5 5
9 8 8 8 8 9 9 8 9 8 7 7 7 7 5 7 8 7 7 7 6 6 6 6 6 5 5 5 5 6 6 5 4 5 5 5 6 5 5 5 5 6 6 5 5 5 5 6 6 6 5 4 3 4 5 5 4 5 6 7 6 6 6 7 6 5 6 5 6 5 4 5 5 5 5 5 5 5 5 5 5 5 4 5 5
9 8 8 8 8 7 7 8 6 9 10 10 10 9 8 8 8 8 7 7 6 7 7 6 5 5 5 5 5 4 5 5 5 5 4 5 5 5 4 5 5 5 5 5 4 4 5 5 6 6 6 5 5 4 5 4 5 5 4 5 6 6 5 5 4 5 5 5 6 5 5 5 5 6 6 5 5 5 5 4 4 5 6 6 5
10 9 8 7 9 6 5 6 8 8 8 8 8 8 8 9 9 8 7 9 9 7 9 8 7 7 6 6 6 6 5 6 5 5 5 5 5 5 5 5 6 5 5 4 3 5 5 5 4 5 5 5 5 5 5 4 3 3 3 3 3 3 3 3 5 5 5 5 5 5 5 5 6 5 6 5 5 5 5 6 6 6 6 6 6
9 7 7 7 8 8 9 9 11 10 10 10 10 9 8 9 9 9 8 8 9 7 8 7 7 7 6 5 6 7 6 5 5 4 5 5 5 5 5 5 6 5 5 4 3 4 4 4 4 5 5 5 5 5 4 3 3 3 3 3 3 3 4 5 4 4 4 4 5 5 5 5 5 5 5 6 5 5 5 7 6 5 6 6 6
8 7 7 7 8 8 8 9 7 9 8 8 9 9 7 9 9 9 9 9 9 8 8 10 10 7 7 6 5 7 6 4 5 5 5 5 5 5 5 5 5 5 5 5 4 4 4 4 4 4 5 4 4 4 4 4 4 3 3 3 5 8 9 7 5 5 5 5 4 4 4 5 5 5 5 4 5 5 6 5 4 5 4 4 4
5 4 5 5 5 5 3 4 6 6 6 7 9 8 8 8 9 9 9 9 8 8 7 8 8 7 7 6 5 6 6 6 6 5 5 6 5 5 5 5 5 5 5 5 4 4 4 3 4 4 4 4 4 4 3 4 4 5 4 5 8 10 10 10 9 7 6 5 5 5 6 5 4 5 5 5 4 5 6 6 6 6 4 5 5
1 1 2 3 4 5 6 6 6 6 7 8 8 9 10 10 10 10 9 9 9 8 8 7 7 6 6 6 4 6 7 7 6 7 7 6 5 5 5 5 5 4 3 4 4 4 4 4 4 4 4 4 4 4 4 4 4 4 6 9 10 9 9 8 6 8 9 6 4 5 5 6 5 6 5 5 4 5 8 6 5 5 5 5 4
Wind_Direction
219 231 220 232 234 232 225 217 224 219 224 219 224 227 223 215 214 210 195 207 195 198 200 199 199 203 206 211 214 214 215 217 214 208 207 209 206 203 195 195 203 210 201 202 199 193 198 203 204 203 179 189 194 189 190 191 185 192 190 188 195 198 173 152 142 118 45 40 73 165 163 138 174 192 184 176 174 195 204 220 205 213 229 242 253
213 222 216 223 225 227 224 219 217 218 222 222 226 226 221 217 213 207 211 210 195 202 200 196 200 204 208 213 216 216 215 215 207 201 205 209 210 202 198 195 203 204 192 200 200 201 199 202 200 189 182 192 182 186 184 176 180 178 187 186 191 192 196 121 135 140 160 71 68 48 138 189 164 183 187 174 196 172 200 212 209 213 229 240 251
213 202 209 219 226 222 222 221 212 219 221 224 225 222 219 218 205 210 213 211 207 208 203 196 195 200 206 211 213 215 213 213 206 201 209 208 207 206 201 198 200 197 196 202 197 194 194 198 195 179 170 176 182 181 170 177 175 183 187 188 187 182 188 153 135 136 153 163 146 161 179 200 179 186 197 194 168 163 185 206 216 213 220 235 248
212 210 211 215 218 218 223 220 214 219 221 221 223 218 213 215 204 212 212 204 206 209 204 199 195 197 204 208 210 211 212 211 206 207 209 208 209 207 203 203 204 202 201 200 192 186 195 190 188 176 171 172 170 166 171 166 171 170 169 181 167 160 157 152 155 133 150 140 192 178 186 165 225 154 149 149 165 179 188 223 199 220 229 233 237
210 218 220 224 210 210 225 216 219 222 223 218 221 212 210 210 206 209 202 207 206 200 207 198 198 198 204 205 205 208 210 207 207 211 213 211 209 206 204 205 206 205 203 197 188 187 189 193 179 170 168 165 161 164 163 166 165 155 160 159 154 141 133 143 138 133 142 155 148 209 151 156 159 138 151 149 170 197 209 219 246 256 262 249 251
216 217 218 223 229 220 217 211 222 223 222 220 218 209 208 208 207 208 199 203 201 202 199 198 200 201 203 205 205 209 208 209 211 212 210 208 207 205 201 202 206 204 199 190 186 188 190 188 172 171 170 171 176 171 167 164 156 156 152 149 149 146 141 128 123 129 136 143 147 136 205 160 102 133 168 149 153 219 261 263 295 257 253 281 266
216 219 221 223 230 232 229 220 213 217 218 218 210 209 211 209 204 207 197 201 200 201 201 199 206 205 205 199 204 206 208 209 213 213 210 205 204 201 198 198 197 194 191 187 185 190 191 180 174 176 179 177 170 170 169 166 164 170 169 158 155 144 134 137 132 126 129 131 112 143 153 182 151 203 226 147 161 164 200 304 297 243 224 223 269
219 225 224 227 230 236 232 229 225 218 209 205 207 211 211 209 209 203 194 203 204 201 200 200 201 203 209 206 206 204 208 211 211 209 204 202 201 204 198 194 191 189 188 186 183 186 186 183 181 184 180 178 178 175 171 172 170 162 161 149 153 153 150 141 128 126 126 134 145 172 182 168 206 138 133 110 110 285 202 202 229 248 261 254 227
225 229 230 231 236 237 239 233 231 231 221 209 205 209 209 208 204 200 201 206 203 204 200 196 197 204 209 209 208 203 208 211 206 200 197 200 202 202 197 193 189 187 186 186 186 186 187 186 187 189 186 184 183 180 179 170 162 163 171 160 155 145 137 138 130 122 124 138 152 127 164 192 195 169 181 189 196 212 198 163 206 213 230 283 283
227 234 232 235 240 242 239 235 227 221 219 220 219 208 202 204 201 203 206 204 201 198 196 198 201 203 203 209 208 205 211 211 205 202 199 197 198 200 195 195 191 189 185 185 188 192 191 188 188 183 184 184 181 178 176 178 178 171 164 163 151 142 146 136 138 147 149 164 183 170 183 215 208 199 199 212 196 196 192 202 206 230 116 260 279
230 233 239 239 243 245 240 236 223 222 223 223 218 210 207 201 204 208 207 201 200 195 190 199 204 201 203 204 209 212 212 208 203 202 201 196 194 194 193 196 194 191 190 186 188 189 188 182 173 174 176 174 176 175 166 146 140 131 143 151 153 149 144 141 153 157 164 180 171 179 195 208 218 200 210 198 194 193 206 192 200 169 184 338 310
241 243 245 251 247 243 239 238 227 232 222 225 217 211 200 200 209 211 207 204 202 185 197 204 202 201 202 204 209 212 215 213 203 199 199 192 189 193 194 193 192 194 191 189 187 183 180 174 169 167 171 175 169 167 163 159 153 153 151 147 143 131 142 147 153 160 174 161 174 197 182 207 208 194 204 178 209 203 209 172 182 203 255 231 258
251 253 255 251 252 245 241 231 232 230 224 220 208 197 201 206 211 210 212 205 182 194 205 199 205 202 200 204 211 211 217 209 201 204 204 192 188 189 196 194 191 196 189 187 181 178 174 169 164 171 177 169 164 162 158 159 153 143 136 133 132 133 129 128 151 160 166 162 174 194 196 191 189 209 187 185 165 170 161 213 233 225 215 242 265
250 260 262 257 253 251 243 236 237 234 224 213 202 204 202 212 210 207 202 193 199 203 201 204 202 202 204 206 210 211 215 214 205 203 205 201 191 187 199 195 195 190 189 184 181 178 176 171 165 164 161 162 161 156 148 144 142 138 134 130 126 128 127 126 129 140 154 168 169 194 206 173 195 177 184 162 145 181 195 227 229 235 234 249 236
275 263 265 265 260 250 240 236 239 236 221 213 209 213 212 215 208 204 197 198 196 200 198 201 204 202 204 204 207 215 220 214 212 209 209 205 198 188 194 183 186 193 193 189 180 175 170 166 160 159 159 162 161 156 152 152 145 142 140 140 139 143 141 143 144 141 150 156 186 197 178 178 170 168 170 168 178 206 199 215 228 238 254 35 11
281 279 273 271 262 255 244 247 244 237 223 216 217 221 218 215 211 198 199 207 209 200 208 198 199 198 197 196 201 215 217 213 214 213 210 209 191 190 178 185 191 191 185 172 174 171 166 160 157 157 159 163 163 160 152 142 139 138 137 134 131 129 144 157 160 155 157 173 187 192 186 181 182 184 196 196 210 215 229 247 305 325 233 274 254
279 277 276 273 268 262 247 245 246 235 222 219 223 222 215 215 211 187 198 201 197 200 201 199 196 192 193 196 198 207 207 207 211 210 208 204 185 189 182 187 185 178 176 172 168 160 166 163 159 158 161 164 166 160 152 141 143 145 146 151 154 156 172 173 193 194 201 208 208 206 209 208 215 215 222 227 210 207 189 175 244 210 269 288 275
280 281 275 273 268 258 241 234 239 232 218 222 222 220 214 210 203 185 195 193 201 203 196 196 196 194 193 197 197 199 204 201 204 206 203 202 190 183 181 177 175 168 157 150 152 158 166 167 164 162 165 165 165 159 154 144 142 147 150 145 144 170 180 166 148 202 214 212 207 204 207 211 218 220 225 235 244 214 133 216 233 270 271 278 284
282 277 275 273 265 253 240 231 230 227 224 224 215 213 205 201 192 185 199 193 202 187 188 189 195 198 199 196 191 193 194 201 204 200 198 196 180 173 171 172 166 165 153 147 146 155 163 171 167 165 166 166 165 159 156 150 146 154 159 151 145 175 187 161 174 184 193 188 226 200 247 217 209 172 326 274 282 329 29 191 212 187 258 262 265
284 277 273 269 262 253 238 232 229 223 226 222 210 210 191 179 180 185 194 187 185 180 184 187 189 198 187 188 193 190 189 201 202 200 197 188 169 170 173 168 172 166 166 158 151 157 159 164 170 170 169 168 166 163 162 153 148 155 152 158 168 192 168 165 180 175 170 175 184 166 200 180 150 119 78 43 4 9 4 3 4 294 260 261 280
285 281 276 272 264 253 245 233 234 231 222 216 203 194 184 184 176 180 180 177 170 175 180 182 184 188 181 185 185 191 191 195 205 202 204 186 171 168 181 177 166 158 158 159 164 162 167 172 171 172 173 171 165 163 160 154 148 154 163 168 179 161 149 162 177 171 160 167 162 154 177 166 141 121 105 88 32 59 62 42 34 19 32 335 317
285 282 277 271 267 260 251 248 240 238 223 195 186 196 194 178 181 178 173 171 174 178 175 176 179 178 180 182 185 192 193 198 194 205 200 178 175 163 162 176 165 157 154 163 168 172 172 170 175 173 173 173 167 163 161 160 157 148 171 166 157 150 154 160 156 156 156 153 154 168 164 156 150 140 142 114 99 73 73 49 25 23 30 90 120
282 276 273 272 267 261 257 247 240 224 213 200 191 191 181 176 179 173 170 172 174 175 175 172 170 172 170 180 181 185 189 199 199 197 193 169 169 170 169 158 163 158 160 170 179 175 168 167 169 171 172 174 167 164 166 166 160 165 170 171 165 158 150 140 145 149 148 153 148 162 169 162 164 162 143 136 125 102 86 70 43 44 39 64 83
282 276 270 265 268 265 258 253 243 218 204 188 189 177 180 181 176 180 175 171 172 172 177 167 167 172 174 178 179 182 191 191 199 193 184 176 176 171 164 164 167 171 166 165 165 164 162 168 166 170 171 170 167 170 175 174 164 173 176 173 173 158 131 136 132 138 135 138 150 162 187 200 161 149 161 166 168 149 110 128 121 129 142 150 87
285 275 268 265 261 266 266 250 234 217 203 181 178 178 176 170 176 191 172 176 173 174 177 172 176 176 175 180 179 176 179 189 186 192 183 175 173 174 172 172 171 167 164 162 157 162 160 158 163 167 169 167 167 174 177 179 171 175 181 167 129 126 134 132 139 132 143 162 171 176 184 185 177 190 187 154 111 106 114 40 28 42 43 59 61
281 269 269 265 258 245 229 243 231 221 209 207 197 186 176 179 178 179 178 181 178 178 173 176 179 177 182 178 176 174 168 170 183 179 177 172 174 175 170 167 166 167 149 148 152 158 164 164 166 166 160 158 162 161 151 155 171 160 130 118 128 131 137 136 141 146 162 166 164 172 193 195 212 192 131 133 134 166 149 188 162 116 109 106 22
273 273 266 262 255 227 213 219 213 208 199 206 199 190 186 181 173 177 180 177 180 177 176 177 179 180 182 180 170 167 168 174 177 176 173 168 167 163 156 159 157 153 150 156 160 164 164 161 161 157 148 147 130 122 112 114 107 99 118 122 128 138 140 147 154 156 159 161 172 186 196 174 123 117 140 148 166 194 170 169 161 191 125 94 112
265 267 261 252 245 229 223 213 202 203 206 188 185 191 200 191 185 187 183 183 177 185 181 184 186 184 182 176 172 167 180 184 185 181 176 168 165 161 160 158 163 161 154 154 155 153 149 148 142 118 112 106 101 90 93 102 117 125 126 134 132 137 143 128 119 130 152 160 155 144 130 131 149 151 148 163 180 210 150 151 150 134 156 131 57
260 261 259 246 245 229 222 215 205 198 203 206 213 209 188 190 198 210 224 201 192 185 188 195 192 189 180 174 171 183 188 194 196 178 167 165 161 163 165 165 159 157 150 137 125 119 120 121 120 126 126 126 120 126 129 124 126 132 133 135 138 139 134 132 146 165 152 137 146 152 144 138 147 144 148 154 217 169 143 87 70 135 300 137 182
257 253 238 232 233 223 218 212 204 198 194 194 191 213 218 209 213 194 207 207 212 215 200 204 195 180 178 190 187 189 194 183 152 166 167 158 154 151 146 142 146 143 146 139 136 133 139 137 140 140 140 138 143 147 155 154 151 148 154 153 147 144 153 162 152 142 140 141 148 146 159 149 154 152 156 175 144 88 173 136 158 147 134 173 159
256 247 228 227 218 213 212 206 208 195 190 186 183 181 183 198 209 212 206 202 191 188 183 172 159 173 174 172 181 126 121 150 166 168 163 157 154 152 152 150 148 149 146 134 135 141 144 142 144 143 148 150 156 161 160 160 164 157 165 162 154 165 153 140 143 129 122 122 101 117 134 147 164 168 163 175 168 190 55 50 111 95 136 157 159
253 248 228 220 213 211 206 206 198 190 191 180 183 177 176 175 200 194 184 188 189 189 188 181 180 178 180 173 161 153 167 167 169 169 164 159 154 150 150 150 150 150 147 136 132 145 146 147 151 157 158 163 169 163 165 165 164 164 160 163 167 149 144 148 145 129 128 124 127 133 145 153 160 162 163 160 144 136 144 116 105 127 113 135 176
243 250 236 215 207 206 201 203 202 198 192 182 186 183 183 181 183 182 182 179 182 187 192 193 189 184 179 179 178 169 167 173 170 166 165 160 153 151 151 151 150 149 139 135 142 147 156 157 159 164 168 173 168 168 168 164 161 164 164 163 155 137 124 129 126 110 126 148 139 155 157 157 152 150 150 160 149 170 180 173 175 145 140 139 276
237 238 236 220 203 203 202 203 203 205 201 198 194 192 194 190 184 174 167 167 178 190 195 193 190 184 182 181 181 174 171 172 172 166 164 160 156 155 154 155 156 158 155 149 152 159 159 164 166 171 171 163 161 157 161 162 160 158 153 147 136 131 130 109 102 123 127 137 141 156 137 157 158 142 159 157 170 150 166 184 161 155 197 168 188
243 239 233 224 213 209 202 201 204 199 201 200 196 195 192 187 175 178 180 181 179 175 165 178 185 181 178 183 183 178 174 170 172 168 165 163 161 160 159 161 169 174 164 156 163 163 167 170 170 172 166 166 166 161 162 155 154 155 151 139 135 138 133 131 138 140 139 136 136 156 162 161 169 169 164 161 151 162 184 183 202 173 171 200 171
244 240 231 221 219 217 206 204 203 200 196 194 194 193 184 180 180 184 180 171 166 150 149 157 150 174 172 177 180 178 174 168 171 170 166 166 165 165 163 171 170 167 157 159 161 159 158 161 157 160 153 149 146 152 154 151 157 154 147 146 150 156 153 148 149 147 159 149 160 155 137 150 159 143 126 140 173 182 187 187 192 202 182 185 195
243 242 233 221 214 214 214 206 205 202 190 182 176 178 178 183 177 170 168 167 160 148 148 137 131 133 141 161 169 168 167 164 162 165 167 169 172 171 163 172 169 156 158 162 155 148 153 156 147 143 147 149 154 150 146 150 145 141 146 143 147 153 169 164 163 153 151 155 161 163 160 168 160 160 155 169 198 183 189 191 193 205 192 205 193
242 239 236 224 214 213 211 207 202 196 194 177 172 173 177 180 181 180 177 169 168 159 157 157 159 156 157 162 164 160 159 157 156 157 163 171 173 157 160 161 163 165 160 155 155 150 145 140 143 148 148 143 144 144 145 145 150 148 144 140 147 163 160 157 156 156 163 154 161 171 164 162 159 157 155 170 184 188 206 199 190 220 256 234 185
247 242 238 227 214 209 207 205 199 196 198 186 173 171 177 175 173 172 170 160 165 167 161 155 159 158 154 153 147 149 147 155 164 168 166 156 139 141 134 139 134 129 135 144 142 143 138 147 136 126 136 142 144 150 147 144 142 140 142 142 150 155 151 149 158 167 166 173 172 165 161 166 166 169 164 162 192 190 200 207 202 195 214 233 227
247 244 234 226 220 211 202 208 203 199 198 187 180 171 171 175 177 173 169 170 171 170 164 156 154 149 142 147 158 161 164 165 159 154 143 142 144 144 140 138 138 140 144 145 146 139 135 131 139 137 139 137 143 142 143 143 152 150 148 154 157 170 175 170 171 171 182 178 168 169 169 176 176 161 156 172 193 189 189 215 220 211 211 219 234
249 242 235 225 215 213 204 200 207 203 201 196 180 172 177 175 170 165 164 169 166 165 164 159 145 132 121 140 151 156 148 150 140 135 134 133 134 134 135 127 128 122 122 133 136 130 130 135 139 137 132 136 137 138 141 140 140 144 156 159 159 167 167 177 173 179 171 165 172 171 185 176 161 151 190 222 207 196 214 213 227 232 228 226 217
249 243 232 225 213 207 203 204 206 207 200 196 185 182 173 168 166 166 167 165 165 161 151 132 121 102 125 133 126 106 98 91 92 109 99 99 98 76 77 87 105 125 141 145 148 141 136 138 143 144 144 143 137 136 134 142 151 155 157 159 167 166 172 185 186 178 168 174 172 181 178 179 177 186 200 196 202 217 221 229 222 230 237 238 236
249 242 236 213 205 203 209 201 184 188 188 193 193 174 161 160 164 163 159 155 154 150 142 137 137 130 127 122 110 103 96 98 105 108 107 97 100 107 113 120 120 113 123 134 139 141 140 140 143 150 150 157 157 156 161 164 160 156 157 162 167 174 183 176 169 177 170 168 180 186 185 195 193 190 199 207 191 193 212 220 236 235 238 236 231
247 242 230 217 210 205 202 191 186 185 189 178 164 159 156 152 146 145 147 146 147 142 140 140 141 138 123 106 104 102 111 117 130 128 125 120 118 122 123 123 125 121 119 117 116 112 120 121 124 120 114 130 138 134 137 147 150 154 159 160 166 174 178 181 187 188 179 183 186 187 191 193 198 192 205 207 187 202 223 218 231 233 235 240 232
245 238 224 215 209 200 199 188 182 167 148 141 143 143 143 145 148 146 143 143 137 133 134 142 145 129 112 116 113 119 130 129 128 130 135 135 130 127 129 124 120 113 108 101 107 109 110 122 128 132 133 127 123 125 126 136 152 156 162 163 168 181 190 194 203 186 173 176 184 184 187 185 203 203 212 212 201 206 222 223 222 231 239 236 221
240 233 221 212 206 200 191 182 170 162 159 159 154 154 154 149 145 143 141 138 139 139 139 141 133 116 117 107 105 115 125 130 132 132 130 129 131 128 124 116 106 104 104 112 111 109 119 131 139 141 139 141 137 139 145 152 161 158 160 168 177 188 184 173 154 153 170 179 181 184 187 194 208 207 208 205 209 204 220 233 225 225 226 235 233
243 228 221 207 204 190 180 163 161 167 164 157 152 154 156 155 146 142 144 146 148 148 150 149 143 141 132 131 135 121 132 137 142 144 142 137 128 125 117 106 103 97 96 96 101 114 123 127 126 132 134 142 149 156 166 161 154 153 162 173 179 173 152 149 162 173 177 185 176 174 189 195 208 210 213 206 207 213 218 227 222 230 233 229 228
237 227 214 202 192 186 181 176 172 167 163 159 155 158 157 151 145 144 142 144 145 147 145 143 141 135 131 127 125 110 119 127 126 128 126 129 130 126 122 119 120 124 119 118 129 133 132 128 126 130 143 153 161 171 172 174 174 178 189 197 195 197 182 172 178 186 180 167 173 188 188 200 214 209 209 204 214 207 217 236 233 234 229 229 231
235 224 209 198 195 194 184 184 173 172 165 148 138 145 148 146 140 137 139 141 145 146 149 137 117 134 134 133 130 116 121 129 131 133 129 126 127 128 129 127 127 133 142 149 156 147 143 141 152 159 162 167 168 169 170 173 185 194 198 204 209 216 201 187 185 195 171 167 181 182 194 205 211 219 212 210 216 213 222 237 230 233 235 230 224
236 226 197 183 174 175 166 161 156 144 139 142 144 146 151 144 140 141 138 137 134 135 134 138 141 139 136 138 138 141 141 143 141 142 135 130 122 131 129 132 137 146 148 154 158 159 160 167 170 172 173 172 175 174 176 184 190 198 204 205 221 222 219 210 207 185 165 186 180 191 191 206 212 216 216 213 213 213 223 234 232 234 229 231 232
222 139 140 145 143 139 143 145 144 137 141 147 152 153 150 145 137 131 134 140 140 139 138 138 139 134 141 140 136 143 127 113 120 113 112 125 138 137 142 145 151 150 145 145 157 168 179 180 182 182 178 178 180 185 190 196 199 201 213 224 226 226 221 218 215 203 182 167 175 175 186 195 204 213 217 210 204 211 226 230 232 226 230 228 230